When you browse on this site, cookies collect data to enhance your experience and personalize the content and advertising you see.
Visit our Privacy Policy to learn more. By continuing to use the site, you agree to this use of cookies and data.
  • In Österreich
  • Länderverzeichnis
  • Für 7 Tage
  • Wassertemperatur
  • Satellitenkarten
  • Wetterkarte
  • News
  • Widgets
  • user-avatar
    Anmelden

    Stündliche Wetter Kabwe

    Heute, 26 Mai, Sonntag

    Zeit Temperatur Niederschläge Wind Luftdruck Luftfeuchtigkeit
    00:00 +14°C° 0 mm 1 m/S 663 mmHg 94%
    01:00 +14°C° 0 mm 1 m/S 663 mmHg 96%
    02:00 +14°C° 0 mm 1 m/S 663 mmHg 97%
    03:00 +13°C° 0 mm 2 m/S 663 mmHg 97%
    04:00 +13°C° 0 mm 2 m/S 663 mmHg 97%
    05:00 +13°C° 0 mm 2 m/S 663 mmHg 97%
    06:00 +14°C° 0 mm 2 m/S 663 mmHg 92%
    07:00 +14°C° 0 mm 3 m/S 664 mmHg 87%
    08:00 +15°C° 0 mm 4 m/S 665 mmHg 82%
    09:00 +17°C° 0 mm 4 m/S 665 mmHg 76%
    10:00 +18°C° 0 mm 4 m/S 665 mmHg 71%
    11:00 +20°C° 0 mm 4 m/S 665 mmHg 65%
    12:00 +21°C° 0 mm 4 m/S 665 mmHg 60%
    13:00 +22°C° 0 mm 3 m/S 664 mmHg 55%
    14:00 +25°C° 0 mm 3 m/S 664 mmHg 50%
    15:00 +24°C° 0 mm 3 m/S 664 mmHg 52%
    16:00 +23°C° 0 mm 2 m/S 663 mmHg 54%
    17:00 +23°C° 0 mm 2 m/S 663 mmHg 55%
    18:00 +20°C° 0 mm 2 m/S 663 mmHg 60%
    19:00 +19°C° 0 mm 2 m/S 663 mmHg 64%
    20:00 +17°C° 0 mm 2 m/S 663 mmHg 68%
    21:00 +17°C° 0 mm 2 m/S 663 mmHg 69%
    22:00 +17°C° 0 mm 2 m/S 663 mmHg 70%
    23:00 +17°C° 0 mm 2 m/S 664 mmHg 71%

    Morgen, 27 Mai, Montag

    Zeit Temperatur Niederschläge Wind Luftdruck Luftfeuchtigkeit
    00:00 +17°C° 0 mm 2 m/S 664 mmHg 71%
    01:00 +17°C° 0 mm 2 m/S 663 mmHg 72%
    02:00 +16°C° 0 mm 3 m/S 663 mmHg 73%
    03:00 +15°C° 0 mm 2 m/S 663 mmHg 77%
    04:00 +15°C° 0 mm 2 m/S 663 mmHg 81%
    05:00 +14°C° 0 mm 2 m/S 662 mmHg 86%
    06:00 +14°C° 0 mm 3 m/S 663 mmHg 81%
    07:00 +16°C° 0 mm 3 m/S 663 mmHg 76%
    08:00 +17°C° 0 mm 4 m/S 664 mmHg 71%
    09:00 +19°C° 0 mm 4 m/S 664 mmHg 64%
    10:00 +21°C° 0 mm 4 m/S 665 mmHg 57%
    11:00 +23°C° 0 mm 4 m/S 665 mmHg 50%
    12:00 +25°C° 0 mm 3 m/S 665 mmHg 47%
    13:00 +26°C° 0 mm 3 m/S 664 mmHg 43%
    14:00 +26°C° 0 mm 2 m/S 663 mmHg 40%
    15:00 +25°C° 0 mm 2 m/S 663 mmHg 44%
    16:00 +24°C° 0 mm 2 m/S 663 mmHg 48%
    17:00 +23°C° 0 mm 2 m/S 662 mmHg 51%
    18:00 +23°C° 0 mm 2 m/S 663 mmHg 51%
    19:00 +21°C° 0 mm 3 m/S 663 mmHg 50%
    20:00 +20°C° 0 mm 3 m/S 663 mmHg 49%
    21:00 +20°C° 0 mm 3 m/S 663 mmHg 51%
    22:00 +19°C° 0 mm 3 m/S 664 mmHg 52%
    23:00 +19°C° 0 mm 3 m/S 664 mmHg 54%

    übermorgen, 28 Mai, Dienstag

    Zeit Temperatur Niederschläge Wind Luftdruck Luftfeuchtigkeit
    00:00 +18°C° 0 mm 3 m/S 663 mmHg 59%
    01:00 +17°C° 0 mm 2 m/S 663 mmHg 63%
    02:00 +15°C° 0 mm 2 m/S 662 mmHg 68%
    03:00 +15°C° 0 mm 2 m/S 662 mmHg 70%
    04:00 +14°C° 0 mm 2 m/S 662 mmHg 73%
    05:00 +14°C° 0 mm 2 m/S 662 mmHg 75%
    06:00 +15°C° 0 mm 2 m/S 662 mmHg 71%
    07:00 +16°C° 0 mm 3 m/S 663 mmHg 68%
    08:00 +17°C° 0 mm 4 m/S 664 mmHg 64%
    09:00 +19°C° 0 mm 4 m/S 664 mmHg 58%
    10:00 +21°C° 0 mm 3 m/S 664 mmHg 53%
    11:00 +22°C° 0 mm 3 m/S 665 mmHg 47%
    12:00 +25°C° 0 mm 3 m/S 664 mmHg 44%
    13:00 +26°C° 0 mm 2 m/S 664 mmHg 40%
    14:00 +27°C° 0 mm 2 m/S 663 mmHg 37%
    15:00 +26°C° 0 mm 2 m/S 663 mmHg 40%
    16:00 +24°C° 0 mm 1 m/S 662 mmHg 44%
    17:00 +23°C° 0 mm 1 m/S 662 mmHg 48%
    18:00 +21°C° 0 mm 2 m/S 662 mmHg 51%
    19:00 +19°C° 0 mm 2 m/S 662 mmHg 54%
    20:00 +18°C° 0 mm 2 m/S 663 mmHg 57%
    21:00 +17°C° 0 mm 2 m/S 663 mmHg 59%
    22:00 +16°C° 0 mm 2 m/S 663 mmHg 61%
    23:00 +16°C° 0 mm 2 m/S 663 mmHg 63%

    29 Mai, Mittwoch

    Zeit Temperatur Niederschläge Wind Luftdruck Luftfeuchtigkeit
    00:00 +15°C° 0 mm 2 m/S 662 mmHg 66%
    01:00 +15°C° 0 mm 1 m/S 662 mmHg 68%
    02:00 +14°C° 0 mm 1 m/S 661 mmHg 70%
    03:00 +14°C° 0 mm 1 m/S 661 mmHg 72%
    04:00 +14°C° 0 mm 1 m/S 661 mmHg 73%
    05:00 +13°C° 0 mm 1 m/S 661 mmHg 75%
    06:00 +15°C° 0 mm 2 m/S 662 mmHg 71%
    07:00 +16°C° 0 mm 2 m/S 663 mmHg 67%
    08:00 +17°C° 0 mm 2 m/S 664 mmHg 63%
    09:00 +19°C° 0 mm 2 m/S 664 mmHg 56%
    10:00 +23°C° 0 mm 2 m/S 664 mmHg 49%
    11:00 +25°C° 0 mm 3 m/S 665 mmHg 43%
    12:00 +26°C° 0 mm 2 m/S 664 mmHg 39%
    13:00 +27°C° 0 mm 2 m/S 664 mmHg 35%
    14:00 +28°C° 0 mm 1 m/S 663 mmHg 31%
    15:00 +27°C° 0 mm 1 m/S 663 mmHg 34%
    16:00 +26°C° 0 mm 1 m/S 662 mmHg 37%
    17:00 +24°C° 0 mm 1 m/S 662 mmHg 41%
    18:00 +23°C° 0 mm 2 m/S 662 mmHg 44%
    19:00 +20°C° 0 mm 2 m/S 662 mmHg 48%
    20:00 +18°C° 0 mm 2 m/S 662 mmHg 52%
    21:00 +17°C° 0 mm 2 m/S 662 mmHg 55%
    22:00 +16°C° 0 mm 2 m/S 663 mmHg 58%
    23:00 +16°C° 0 mm 2 m/S 663 mmHg 61%

    30 Mai, Donnerstag

    Zeit Temperatur Niederschläge Wind Luftdruck Luftfeuchtigkeit
    00:00 +15°C° 0 mm 2 m/S 662 mmHg 63%
    01:00 +15°C° 0 mm 2 m/S 662 mmHg 66%
    02:00 +15°C° 0 mm 2 m/S 662 mmHg 68%
    03:00 +14°C° 0 mm 2 m/S 662 mmHg 71%
    04:00 +14°C° 0 mm 2 m/S 662 mmHg 74%
    05:00 +14°C° 0 mm 2 m/S 662 mmHg 77%
    06:00 +15°C° 0 mm 2 m/S 662 mmHg 73%
    07:00 +16°C° 0 mm 2 m/S 663 mmHg 69%
    08:00 +17°C° 0 mm 3 m/S 664 mmHg 66%
    09:00 +20°C° 0 mm 3 m/S 664 mmHg 59%
    10:00 +22°C° 0 mm 3 m/S 664 mmHg 52%
    11:00 +25°C° 0 mm 3 m/S 665 mmHg 45%
    12:00 +26°C° 0 mm 2 m/S 664 mmHg 40%
    13:00 +27°C° 0 mm 2 m/S 663 mmHg 35%
    14:00 +28°C° 0 mm 1 m/S 663 mmHg 30%
    15:00 +27°C° 0 mm 1 m/S 663 mmHg 33%
    16:00 +26°C° 0 mm 1 m/S 662 mmHg 37%
    17:00 +25°C° 0 mm 1 m/S 662 mmHg 40%
    18:00 +23°C° 0 mm 2 m/S 662 mmHg 44%
    19:00 +20°C° 0 mm 2 m/S 662 mmHg 47%
    20:00 +18°C° 0 mm 2 m/S 662 mmHg 51%
    21:00 +17°C° 0 mm 2 m/S 662 mmHg 53%
    22:00 +17°C° 0 mm 2 m/S 662 mmHg 56%
    23:00 +16°C° 0 mm 2 m/S 662 mmHg 59%

    31 Mai, Freitag

    Zeit Temperatur Niederschläge Wind Luftdruck Luftfeuchtigkeit
    00:00 +16°C° 0 mm 2 m/S 662 mmHg 62%
    01:00 +15°C° 0 mm 2 m/S 662 mmHg 65%
    02:00 +15°C° 0 mm 2 m/S 661 mmHg 68%
    03:00 +14°C° 0 mm 2 m/S 661 mmHg 71%
    04:00 +14°C° 0 mm 1 m/S 661 mmHg 73%
    05:00 +14°C° 0 mm 1 m/S 661 mmHg 75%
    06:00 +15°C° 0 mm 2 m/S 662 mmHg 71%
    07:00 +16°C° 0 mm 2 m/S 663 mmHg 68%
    08:00 +18°C° 0 mm 2 m/S 663 mmHg 64%
    09:00 +20°C° 0 mm 2 m/S 664 mmHg 55%
    10:00 +24°C° 0 mm 2 m/S 664 mmHg 46%
    11:00 +26°C° 0 mm 2 m/S 664 mmHg 38%
    12:00 +27°C° 0 mm 2 m/S 664 mmHg 34%
    13:00 +28°C° 0 mm 2 m/S 663 mmHg 31%
    14:00 +29°C° 0 mm 1 m/S 663 mmHg 28%
    15:00 +28°C° 0 mm 1 m/S 662 mmHg 31%
    16:00 +27°C° 0 mm 1 m/S 662 mmHg 34%
    17:00 +25°C° 0 mm 1 m/S 662 mmHg 38%
    18:00 +23°C° 0 mm 2 m/S 662 mmHg 41%
    19:00 +20°C° 0 mm 2 m/S 662 mmHg 44%
    20:00 +18°C° 0 mm 2 m/S 662 mmHg 47%
    21:00 +18°C° 0 mm 2 m/S 662 mmHg 49%
    22:00 +17°C° 0 mm 2 m/S 662 mmHg 50%
    23:00 +17°C° 0 mm 2 m/S 662 mmHg 52%
    Mehr zeigen